Overview Statistics Trail Chart Weather Telemetry Raw packets
 

This is the latest recevied weather packets stored in our database for station/object YO6KXQ-10. If no packets are shown the sender has not sent any weather packets the latest 10 day(s).

<< 3 4 5 6 7 8 9 >>
Time Temp. Humidity Pressure Rain* Wind** Luminosity Snow
1777648403 17.78° C 46% 1025.9 hPa - - - -
1777647383 17.78° C 44% 1025.7 hPa - - - -
1777646363 17.78° C 46% 1025.7 hPa - - - -
1777645342 17.78° C 46% 1025.9 hPa - - - -
1777644322 17.78° C 45% 1026 hPa - - - -
1777643301 17.78° C 45% 1025.9 hPa - - - -
1777642281 17.22° C 46% 1026.1 hPa - - - -
1777641261 16.67° C 46% 1026 hPa - - - -
1777640241 16.67° C 46% 1026.2 hPa - - - -
1777639219 16.67° C 46% 1026.4 hPa - - - -
1777638199 16.11° C 46% 1026.5 hPa - - - -
1777637179 16.11° C 45% 1026.9 hPa - - - -
1777636159 16.11° C 45% 1026.9 hPa - - - -
1777635139 16.11° C 45% 1026.9 hPa - - - -
1777634119 15.56° C 44% 1027.1 hPa - - - -
1777633098 15.56° C 44% 1027.2 hPa - - - -
1777632078 15.56° C 43% 1027.3 hPa - - - -
1777631058 15.56° C 42% 1027.4 hPa - - - -
1777630038 15.56° C 41% 1027.5 hPa - - - -
1777629018 15.56° C 40% 1027.7 hPa - - - -
1777627998 15° C 38% 1027.9 hPa - - - -
1777626977 15° C 35% 1027.9 hPa - - - -
1777625957 15.56° C 35% 1028 hPa - - - -
1777624937 15.56° C 50% 1028 hPa - - - -
1777623917 15.56° C 51% 1028.1 hPa - - - -

* Rain since midnight (hover to see other rain measurements)
** Current wind speed in m/s (hover to see current wind gust speed)